Time,TemperatureF,DewpointF,PressureIn,WindDirection,WindDirectionDegrees,WindSpeedMPH,WindSpeedGustMPH,Humidity,HourlyPrecipIn,Conditions,Clouds,dailyrainin,SoftwareType,DateUTC
2013-06-21 00:00:00,65.3,64.7,30.09,West,270,1.7,-999.0,98,-99.99,,,0.00,Acu-Link.com,2013-06-21 04:00:00,
2013-06-21 00:15:00,66.0,65.4,30.09,NW,315,0.0,-999.0,98,-99.99,,,0.00,Acu-Link.com,2013-06-21 04:15:00,
2013-06-21 00:30:00,66.0,65.4,30.10,South,180,0.0,-999.0,98,-99.99,,,0.00,Acu-Link.com,2013-06-21 04:30:00,
2013-06-21 00:46:00,66.4,65.8,30.10,West,270,0.0,-999.0,98,-99.99,,,0.00,Acu-Link.com,2013-06-21 04:46:00,
2013-06-21 01:01:00,67.3,66.7,30.09,East,90,0.0,-999.0,98,-99.99,,,0.00,Acu-Link.com,2013-06-21 05:01:00,
2013-06-21 01:16:00,67.6,67.0,30.09,NNW,337,0.0,-999.0,98,-99.99,,,0.00,Acu-Link.com,2013-06-21 05:16:00,
2013-06-21 01:31:00,67.8,67.2,30.09,SW,225,0.0,-999.0,98,-99.99,,,0.00,Acu-Link.com,2013-06-21 05:31:00,
2013-06-21 01:46:00,68.0,67.4,30.09,NNE,22,0.0,-999.0,98,-99.99,,,0.00,Acu-Link.com,2013-06-21 05:46:00,
2013-06-21 02:01:00,67.8,67.2,30.08,North,0,0.0,-999.0,98,-99.99,,,0.00,Acu-Link.com,2013-06-21 06:01:00,
2013-06-21 02:16:00,67.3,66.7,30.08,East,90,0.0,-999.0,98,-99.99,,,0.00,Acu-Link.com,2013-06-21 06:16:00,
2013-06-21 02:31:00,66.9,66.3,30.08,NE,45,0.0,-999.0,98,-99.99,,,0.00,Acu-Link.com,2013-06-21 06:31:00,
2013-06-21 02:46:00,66.2,65.6,30.09,NE,45,0.0,-999.0,98,-99.99,,,0.00,Acu-Link.com,2013-06-21 06:46:00,
2013-06-21 03:01:00,65.7,65.1,30.09,NNW,337,0.0,-999.0,98,-99.99,,,0.00,Acu-Link.com,2013-06-21 07:01:00,
2013-06-21 03:17:00,64.9,64.3,30.09,WSW,247,1.1,-999.0,98,-99.99,,,0.00,Acu-Link.com,2013-06-21 07:17:00,
2013-06-21 03:32:00,64.2,63.6,30.09,South,180,0.0,-999.0,98,-99.99,,,0.00,Acu-Link.com,2013-06-21 07:32:00,
2013-06-21 03:47:00,63.7,63.1,30.09,West,270,0.0,-999.0,98,-99.99,,,0.00,Acu-Link.com,2013-06-21 07:47:00,
2013-06-21 04:02:00,63.0,62.4,30.08,NNW,337,0.0,-999.0,98,-99.99,,,0.00,Acu-Link.com,2013-06-21 08:02:00,
2013-06-21 04:18:00,62.6,62.0,30.09,East,90,0.0,-999.0,98,-99.99,,,0.00,Acu-Link.com,2013-06-21 08:18:00,
2013-06-21 04:33:00,62.2,61.6,30.08,NNW,337,0.0,-999.0,98,-99.99,,,0.00,Acu-Link.com,2013-06-21 08:33:00,
2013-06-21 04:48:00,61.3,60.7,30.08,West,270,0.0,-999.0,98,-99.99,,,0.00,Acu-Link.com,2013-06-21 08:48:00,
2013-06-21 05:03:00,60.8,60.2,30.08,ENE,67,0.0,-999.0,98,-99.99,,,0.00,Acu-Link.com,2013-06-21 09:03:00,
2013-06-21 05:18:00,60.1,59.5,30.09,ENE,67,0.0,-999.0,98,-99.99,,,0.00,Acu-Link.com,2013-06-21 09:18:00,
2013-06-21 05:34:00,59.5,58.9,30.09,ENE,67,0.0,-999.0,98,-99.99,,,0.00,Acu-Link.com,2013-06-21 09:34:00,
2013-06-21 05:49:00,59.2,58.6,30.09,ESE,112,0.0,-999.0,98,-99.99,,,0.00,Acu-Link.com,2013-06-21 09:49:00,
2013-06-21 06:04:00,58.8,58.2,30.09,ESE,112,0.0,-999.0,98,-99.99,,,0.00,Acu-Link.com,2013-06-21 10:04:00,
2013-06-21 06:19:00,58.5,57.9,30.09,NE,45,0.0,-999.0,98,-99.99,,,0.00,Acu-Link.com,2013-06-21 10:19:00,
2013-06-21 06:34:00,58.6,58.0,30.11,NE,45,0.0,-999.0,98,-99.99,,,0.00,Acu-Link.com,2013-06-21 10:34:00,
2013-06-21 06:49:00,59.0,58.4,30.12,SW,225,0.0,-999.0,98,-99.99,,,0.00,Acu-Link.com,2013-06-21 10:49:00,
2013-06-21 07:04:00,60.3,59.7,30.12,NNW,337,2.2,-999.0,98,-99.99,,,0.00,Acu-Link.com,2013-06-21 11:04:00,
2013-06-21 07:19:00,61.7,61.1,30.12,SSE,157,0.0,-999.0,98,-99.99,,,0.00,Acu-Link.com,2013-06-21 11:19:00,
2013-06-21 07:34:00,64.8,64.2,30.12,SSW,202,0.0,-999.0,98,-99.99,,,0.00,Acu-Link.com,2013-06-21 11:34:00,
2013-06-21 07:49:00,67.3,66.7,30.11,NNE,22,0.0,-999.0,98,-99.99,,,0.00,Acu-Link.com,2013-06-21 11:49:00,
2013-06-21 08:05:00,70.3,69.7,30.12,East,90,0.0,-999.0,98,-99.99,,,0.00,Acu-Link.com,2013-06-21 12:05:00,
2013-06-21 08:20:00,72.9,72.3,30.12,NNE,22,0.0,-999.0,98,-99.99,,,0.00,Acu-Link.com,2013-06-21 12:20:00,
2013-06-21 08:35:00,73.4,72.8,30.13,WSW,247,0.0,-999.0,98,-99.99,,,0.00,Acu-Link.com,2013-06-21 12:35:00,
2013-06-21 08:50:00,75.0,74.4,30.12,SE,135,0.0,-999.0,98,-99.99,,,0.00,Acu-Link.com,2013-06-21 12:50:00,
2013-06-21 09:05:00,76.3,75.7,30.12,SSW,202,0.0,-999.0,98,-99.99,,,0.00,Acu-Link.com,2013-06-21 13:05:00,
2013-06-21 09:20:00,77.4,76.8,30.12,ESE,112,2.2,-999.0,98,-99.99,,,0.00,Acu-Link.com,2013-06-21 13:20:00,
2013-06-21 09:35:00,76.5,75.9,30.12,SSE,157,2.2,-999.0,98,-99.99,,,0.00,Acu-Link.com,2013-06-21 13:35:00,
2013-06-21 09:50:00,79.2,78.6,30.11,South,180,0.0,-999.0,98,-99.99,,,0.00,Acu-Link.com,2013-06-21 13:50:00,
2013-06-21 10:05:00,79.2,78.6,30.11,ESE,112,2.2,-999.0,98,-99.99,,,0.00,Acu-Link.com,2013-06-21 14:05:00,
2013-06-21 10:21:00,81.0,80.4,30.10,ESE,112,2.2,-999.0,98,-99.99,,,0.00,Acu-Link.com,2013-06-21 14:21:00,
2013-06-21 10:36:00,78.6,78.0,30.11,SSW,202,1.1,-999.0,98,-99.99,,,0.00,Acu-Link.com,2013-06-21 14:36:00,
2013-06-21 10:51:00,82.2,81.6,30.11,SW,225,4.2,-999.0,98,-99.99,,,0.00,Acu-Link.com,2013-06-21 14:51:00,
2013-06-21 11:06:00,82.0,81.4,30.10,West,270,4.2,-999.0,98,-99.99,,,0.00,Acu-Link.com,2013-06-21 15:06:00,
2013-06-21 11:21:00,83.3,82.7,30.10,SSE,157,1.1,-999.0,98,-99.99,,,0.00,Acu-Link.com,2013-06-21 15:21:00,
2013-06-21 11:51:00,84.7,84.1,30.11,SW,225,1.1,-999.0,98,-99.99,,,0.00,Acu-Link.com,2013-06-21 15:51:00,
2013-06-21 12:06:00,86.2,85.6,30.11,SW,225,1.7,-999.0,98,-99.99,,,0.00,Acu-Link.com,2013-06-21 16:06:00,
2013-06-21 12:21:00,85.6,85.0,30.10,SW,225,0.0,-999.0,98,-99.99,,,0.00,Acu-Link.com,2013-06-21 16:21:00,
2013-06-21 12:52:00,86.5,85.9,30.10,WSW,247,2.2,-999.0,98,-99.99,,,0.00,Acu-Link.com,2013-06-21 16:52:00,
2013-06-21 13:22:00,87.3,86.7,30.10,SW,225,3.2,-999.0,98,-99.99,,,0.00,Acu-Link.com,2013-06-21 17:22:00,
2013-06-21 13:52:00,88.2,87.6,30.09,NNE,22,2.2,-999.0,98,-99.99,,,0.00,Acu-Link.com,2013-06-21 17:52:00,
2013-06-21 14:07:00,88.3,87.7,30.09,ESE,112,3.7,-999.0,98,-99.99,,,0.00,Acu-Link.com,2013-06-21 18:07:00,
2013-06-21 14:22:00,90.5,89.9,30.08,SSE,157,3.2,-999.0,98,-99.99,,,0.00,Acu-Link.com,2013-06-21 18:22:00,
2013-06-21 14:37:00,90.7,90.1,30.08,East,90,3.7,-999.0,98,-99.99,,,0.00,Acu-Link.com,2013-06-21 18:37:00,
2013-06-21 14:53:00,90.3,89.7,30.08,NE,45,2.7,-999.0,98,-99.99,,,0.00,Acu-Link.com,2013-06-21 18:53:00,
2013-06-21 15:08:00,90.7,90.1,30.08,SSW,202,3.2,-999.0,98,-99.99,,,0.00,Acu-Link.com,2013-06-21 19:08:00,
2013-06-21 15:23:00,89.1,88.5,30.08,SSW,202,3.2,-999.0,98,-99.99,,,0.00,Acu-Link.com,2013-06-21 19:23:00,
2013-06-21 15:38:00,90.7,90.1,30.07,ENE,67,5.8,-999.0,98,-99.99,,,0.00,Acu-Link.com,2013-06-21 19:38:00,
2013-06-21 15:53:00,90.1,89.5,30.07,ESE,112,3.7,-999.0,98,-99.99,,,0.00,Acu-Link.com,2013-06-21 19:53:00,
2013-06-21 16:08:00,89.8,89.2,30.06,West,270,1.7,-999.0,98,-99.99,,,0.00,Acu-Link.com,2013-06-21 20:08:00,
2013-06-21 16:23:00,90.7,90.1,30.06,SSW,202,2.7,-999.0,98,-99.99,,,0.00,Acu-Link.com,2013-06-21 20:23:00,
2013-06-21 16:38:00,91.0,90.4,30.05,East,90,4.2,-999.0,98,-99.99,,,0.00,Acu-Link.com,2013-06-21 20:38:00,
2013-06-21 16:53:00,91.8,91.2,30.05,West,270,5.3,-999.0,98,-99.99,,,0.00,Acu-Link.com,2013-06-21 20:53:00,
2013-06-21 17:09:00,90.7,90.1,30.05,SSW,202,3.2,-999.0,98,-99.99,,,0.00,Acu-Link.com,2013-06-21 21:09:00,
2013-06-21 17:24:00,90.9,90.3,30.05,SSE,157,1.7,-999.0,98,-99.99,,,0.00,Acu-Link.com,2013-06-21 21:24:00,
2013-06-21 17:39:00,91.4,90.8,30.05,ESE,112,5.3,-999.0,98,-99.99,,,0.00,Acu-Link.com,2013-06-21 21:39:00,
2013-06-21 17:54:00,91.6,91.0,30.04,ENE,67,2.2,-999.0,98,-99.99,,,0.00,Acu-Link.com,2013-06-21 21:54:00,
2013-06-21 18:09:00,91.6,91.0,30.04,ENE,67,4.7,-999.0,98,-99.99,,,0.00,Acu-Link.com,2013-06-21 22:09:00,
2013-06-21 18:24:00,90.5,89.9,30.03,SSE,157,2.2,-999.0,98,-99.99,,,0.00,Acu-Link.com,2013-06-21 22:24:00,
2013-06-21 18:39:00,88.2,87.6,30.03,North,0,4.7,-999.0,98,-99.99,,,0.00,Acu-Link.com,2013-06-21 22:39:00,
2013-06-21 18:54:00,87.4,86.8,30.03,West,270,2.7,-999.0,98,-99.99,,,0.00,Acu-Link.com,2013-06-21 22:54:00,
2013-06-21 19:09:00,84.2,83.6,30.04,SSE,157,3.2,-999.0,98,-99.99,,,0.00,Acu-Link.com,2013-06-21 23:09:00,
2013-06-21 19:25:00,82.6,82.0,30.04,East,90,2.2,-999.0,98,-99.99,,,0.00,Acu-Link.com,2013-06-21 23:25:00,
2013-06-21 19:40:00,80.6,80.0,30.05,SW,225,2.7,-999.0,98,-99.99,,,0.00,Acu-Link.com,2013-06-21 23:40:00,
2013-06-21 19:55:00,80.2,79.6,30.05,ESE,112,0.0,-999.0,98,-99.99,,,0.00,Acu-Link.com,2013-06-21 23:55:00,
2013-06-21 20:10:00,78.8,78.2,30.05,NNE,22,2.7,-999.0,98,-99.99,,,0.00,Acu-Link.com,2013-06-22 00:10:00,
2013-06-21 20:25:00,77.0,76.4,30.04,North,0,3.2,-999.0,98,-99.99,,,0.00,Acu-Link.com,2013-06-22 00:25:00,
2013-06-21 20:40:00,75.6,75.0,30.05,SSW,202,2.2,-999.0,98,-99.99,,,0.00,Acu-Link.com,2013-06-22 00:40:00,
2013-06-21 20:55:00,74.5,73.9,30.05,East,90,2.7,-999.0,98,-99.99,,,0.00,Acu-Link.com,2013-06-22 00:55:00,
2013-06-21 21:10:00,73.8,73.2,30.06,East,90,3.7,-999.0,98,-99.99,,,0.00,Acu-Link.com,2013-06-22 01:10:00,
2013-06-21 21:25:00,73.2,72.6,30.07,ENE,67,1.1,-999.0,98,-99.99,,,0.00,Acu-Link.com,2013-06-22 01:25:00,
2013-06-21 21:41:00,72.3,71.7,30.07,NE,45,0.0,-999.0,98,-99.99,,,0.00,Acu-Link.com,2013-06-22 01:41:00,
2013-06-21 21:56:00,71.8,71.2,30.07,ENE,67,3.2,-999.0,98,-99.99,,,0.00,Acu-Link.com,2013-06-22 01:56:00,
2013-06-21 22:11:00,71.2,70.6,30.07,SSW,202,0.0,-999.0,98,-99.99,,,0.00,Acu-Link.com,2013-06-22 02:11:00,
2013-06-21 22:26:00,69.3,68.7,30.07,West,270,0.0,-999.0,98,-99.99,,,0.00,Acu-Link.com,2013-06-22 02:26:00,
2013-06-21 22:41:00,67.5,66.9,30.07,ENE,67,0.0,-999.0,98,-99.99,,,0.00,Acu-Link.com,2013-06-22 02:41:00,
2013-06-21 22:56:00,66.6,66.0,30.07,West,270,0.0,-999.0,98,-99.99,,,0.00,Acu-Link.com,2013-06-22 02:56:00,
2013-06-21 23:11:00,65.7,65.1,30.07,West,270,0.0,-999.0,98,-99.99,,,0.00,Acu-Link.com,2013-06-22 03:11:00,
2013-06-21 23:26:00,64.9,64.3,30.07,ENE,67,0.0,-999.0,98,-99.99,,,0.00,Acu-Link.com,2013-06-22 03:26:00,
2013-06-21 23:41:00,63.9,63.3,30.09,East,90,0.0,-999.0,98,-99.99,,,0.00,Acu-Link.com,2013-06-22 03:41:00,
2013-06-21 23:57:00,63.0,62.4,30.09,ESE,112,0.0,-999.0,98,-99.99,,,0.00,Acu-Link.com,2013-06-22 03:57:00,